This is the latest recevied weather packets stored in our database for station/object LZ1HCO-25. If no packets are shown the sender has not sent any weather packets the latest 1 day(s).
| Time | Temp. | Humidity | Pressure | Rain* | Wind** | Luminosity | Snow |
|---|---|---|---|---|---|---|---|
| 1777971507 | 25.56° C | 39% | 969 hPa | - | 0 m/s | 0 W/m² | - |
| 1777971195 | 26.11° C | 36% | 969 hPa | - | 0 m/s | 0 W/m² | - |
| 1777970884 | 26.11° C | 40% | 969 hPa | - | 0 m/s | 0 W/m² | - |
| 1777970573 | 26.67° C | 37% | 969 hPa | - | 0 m/s | 0 W/m² | - |
| 1777970261 | 25.56° C | 37% | 969 hPa | - | 0 m/s | 0 W/m² | - |
| 1777969950 | 25.56° C | 40% | 969 hPa | - | 0 m/s | 0 W/m² | - |
| 1777969638 | 26.11° C | 36% | 969 hPa | - | 0 m/s | 0 W/m² | - |
| 1777969327 | 25.56° C | 37% | 969 hPa | - | 0 m/s | 0 W/m² | - |
| 1777969016 | 25° C | 42% | 969 hPa | - | 0 m/s | 0 W/m² | - |
| 1777968704 | 25.56° C | 41% | 969 hPa | - | 0 m/s | 0 W/m² | - |
| 1777968393 | 24.44° C | 41% | 969 hPa | - | 0 m/s | 0 W/m² | - |
| 1777968082 | 24.44° C | 40% | 969 hPa | - | 0 m/s | 0 W/m² | - |
| 1777967770 | 25.56° C | 39% | 969 hPa | - | 0 m/s | 0 W/m² | - |
| 1777967459 | 24.44° C | 41% | 969 hPa | - | 0 m/s | 0 W/m² | - |
| 1777967148 | 25.56° C | 40% | 969 hPa | - | 0 m/s | 0 W/m² | - |
| 1777966842 | 24.44° C | 46% | 969 hPa | - | 0 m/s | 0 W/m² | - |
| 1777966525 | 24.44° C | 39% | 969 hPa | - | 0 m/s | 0 W/m² | - |
| 1777966213 | 25° C | 39% | 969 hPa | - | 0 m/s | 0 W/m² | - |
| 1777965902 | 24.44° C | 39% | 969 hPa | - | 0 m/s | 0 W/m² | - |
| 1777965591 | 24.44° C | 41% | 969 hPa | - | 0 m/s | 0 W/m² | - |
| 1777965279 | 23.89° C | 43% | 969 hPa | - | 0 m/s | 0 W/m² | - |
| 1777964968 | 24.44° C | 45% | 969 hPa | - | 0 m/s | 0 W/m² | - |
| 1777964657 | 23.89° C | 44% | 969 hPa | - | 0 m/s | 0 W/m² | - |
| 1777964345 | 23.89° C | 53% | 969 hPa | - | 0 m/s | 0 W/m² | - |
| 1777964034 | 22.78° C | 55% | 969 hPa | - | 0 m/s | 0 W/m² | - |
* Rain since midnight (hover to see other rain measurements)
** Current wind speed in m/s (hover to see current wind gust speed)